Total_Precipitation_Accumulation
0.00 0.00 0.00 0.00 0.00 0.00 0.00 0.00 0.00 0.00 0.00 0.00 0.00 0.00 0.00 0.00 0.00 0.00 0.00 0.03 0.01 0.03 0.21 0.31 0.71 1.37 0.64 0.13 0.15 0.96 1.71 2.16 2.48 2.39 1.10 0.94 0.91 1.01 0.45 0.28 0.32 0.35 0.42 0.61
0.00 0.00 0.00 0.00 0.00 0.00 0.00 0.00 0.00 0.00 0.00 0.00 0.00 0.00 0.00 0.00 0.00 0.01 0.00 0.00 0.00 0.02 0.09 0.32 1.61 1.24 0.73 0.41 0.53 0.79 0.62 0.73 0.67 0.85 1.03 2.02 0.86 0.99 0.60 0.59 0.52 0.48 0.55 0.60
0.00 0.00 0.00 0.00 0.00 0.00 0.00 0.00 0.00 0.00 0.00 0.00 0.00 0.00 0.00 0.00 0.00 0.00 0.00 0.00 0.00 0.04 0.07 0.06 0.26 0.33 0.13 0.53 0.83 0.59 0.62 0.34 0.24 0.54 1.13 1.30 0.55 0.47 0.38 0.23 0.22 0.25 0.16 0.29
0.00 0.00 0.00 0.00 0.00 0.00 0.00 0.00 0.00 0.00 0.00 0.00 0.00 0.00 0.00 0.00 0.00 0.00 0.00 0.00 0.00 0.05 0.34 0.10 0.09 0.14 0.25 0.39 0.88 0.60 0.39 0.28 0.48 0.61 0.91 0.37 0.24 0.15 0.07 0.01 0.01 0.00 0.00 0.01
0.00 0.00 0.00 0.00 0.00 0.00 0.00 0.00 0.00 0.00 0.00 0.00 0.00 0.00 0.00 0.00 0.00 0.00 0.01 0.00 0.00 0.02 0.09 0.11 0.14 0.22 0.34 0.29 0.65 0.27 0.18 0.21 0.38 0.50 0.29 0.16 0.03 0.01 0.00 0.00 0.00 0.01 0.02 0.02
0.00 0.00 0.00 0.00 0.00 0.00 0.00 0.00 0.00 0.00 0.00 0.00 0.00 0.00 0.00 0.00 0.00 0.00 0.00 0.00 0.00 0.02 0.05 0.14 0.13 0.18 0.33 0.36 0.33 0.16 0.14 0.16 0.16 0.16 0.10 0.03 0.00 0.00 0.00 0.00 0.00 0.01 0.02 0.06
0.00 0.00 0.00 0.00 0.00 0.00 0.00 0.00 0.00 0.00 0.00 0.00 0.00 0.00 0.00 0.00 0.00 0.00 0.00 0.00 0.01 0.04 0.05 0.08 0.11 0.11 0.18 0.19 0.05 0.09 0.14 0.14 0.11 0.03 0.00 0.00 0.00 0.00 0.00 0.00 0.00 0.01 0.01 0.11
0.00 0.00 0.00 0.00 0.00 0.00 0.00 0.00 0.00 0.00 0.00 0.00 0.00 0.00 0.00 0.00 0.00 0.01 0.01 0.00 0.02 0.04 0.03 0.06 0.07 0.06 0.05 0.07 0.10 0.11 0.11 0.09 0.03 0.00 0.00 0.00 0.00 0.00 0.00 0.00 0.00 0.00 0.01 0.03
0.00 0.00 0.00 0.00 0.00 0.00 0.00 0.00 0.00 0.00 0.00 0.00 0.00 0.00 0.00 0.00 0.00 0.04 0.06 0.18 0.46 0.56 0.19 0.15 0.10 0.10 0.11 0.10 0.09 0.05 0.08 0.03 0.00 0.00 0.00 0.00 0.00 0.00 0.00 0.00 0.00 0.00 0.01 0.01
0.00 0.00 0.00 0.00 0.00 0.00 0.00 0.00 0.00 0.00 0.00 0.00 0.00 0.00 0.01 0.02 0.04 0.11 0.61 0.85 0.79 0.30 0.17 0.13 0.14 0.07 0.03 0.01 0.00 0.03 0.03 0.04 0.01 0.00 0.00 0.00 0.00 0.00 0.00 0.01 0.01 0.00 0.01 0.02
0.00 0.00 0.00 0.00 0.00 0.00 0.00 0.00 0.00 0.00 0.00 0.00 0.00 0.00 0.01 0.02 0.02 0.07 0.10 0.66 0.85 0.51 0.17 0.10 0.12 0.13 0.14 0.07 0.04 0.04 0.03 0.04 0.02 0.00 0.00 0.00 0.00 0.00 0.00 0.01 0.01 0.00 0.01 0.01
0.00 0.00 0.00 0.00 0.00 0.00 0.00 0.00 0.00 0.00 0.00 0.00 0.00 0.00 0.00 0.00 0.00 0.03 0.29 0.17 0.19 0.34 0.15 0.20 0.26 0.30 0.22 0.10 0.10 0.30 0.26 0.07 0.01 0.00 0.00 0.00 0.00 0.00 0.00 0.00 0.00 0.01 0.01 0.01
0.00 0.00 0.00 0.00 0.00 0.00 0.00 0.00 0.00 0.00 0.00 0.00 0.02 0.06 0.02 0.00 0.01 0.01 0.44 0.25 0.19 0.38 0.17 0.27 0.28 0.20 0.15 0.07 0.21 1.01 0.92 0.31 0.03 0.00 0.00 0.00 0.00 0.00 0.00 0.00 0.00 0.00 0.00 0.00
0.00 0.00 0.00 0.00 0.00 0.00 0.00 0.00 0.00 0.00 0.00 0.00 0.00 0.00 0.00 0.00 0.03 0.08 0.16 0.37 0.63 0.68 0.22 0.19 0.12 0.07 0.10 0.06 0.19 1.01 0.83 0.22 0.03 0.00 0.00 0.00 0.00 0.00 0.00 0.00 0.00 0.00 0.00 0.01
0.00 0.00 0.00 0.00 0.00 0.00 0.00 0.00 0.00 0.00 0.00 0.00 0.00 0.02 0.04 0.16 0.32 0.47 0.14 0.16 0.38 0.44 0.14 0.14 0.06 0.04 0.01 0.04 0.04 0.00 0.20 0.13 0.08 0.02 0.00 0.00 0.00 0.00 0.00 0.00 0.00 0.00 0.00 0.00
0.00 0.00 0.00 0.00 0.00 0.00 0.00 0.00 0.00 0.00 0.00 0.00 0.00 0.00 0.03 0.16 0.04 0.18 0.40 0.06 0.05 0.12 0.22 0.26 0.16 0.03 0.05 0.06 0.07 0.03 0.03 0.01 0.07 0.09 0.04 0.01 0.01 0.01 0.00 0.00 0.00 0.00 0.00 0.00
0.00 0.00 0.00 0.00 0.00 0.00 0.00 0.00 0.00 0.00 0.00 0.00 0.00 0.00 0.03 0.27 0.14 0.05 0.13 0.07 0.11 0.18 0.25 0.55 0.16 0.06 0.08 0.11 0.06 0.06 0.07 0.08 0.05 0.13 0.09 0.06 0.02 0.01 0.01 0.01 0.00 0.00 0.00 0.00
0.00 0.00 0.00 0.00 0.00 0.00 0.00 0.00 0.00 0.00 0.00 0.00 0.00 0.00 0.07 0.22 0.13 0.16 0.50 0.09 0.02 0.04 0.08 0.04 0.06 0.09 0.13 0.10 0.10 0.13 0.21 0.20 0.15 0.21 0.27 0.20 0.08 0.05 0.08 0.08 0.01 0.00 0.00 0.00
0.00 0.00 0.00 0.00 0.00 0.00 0.00 0.01 0.00 0.00 0.00 0.01 0.01 0.03 0.10 0.24 0.38 0.23 0.27 0.16 0.03 0.06 0.08 0.07 0.07 0.08 0.07 0.14 0.22 0.26 0.37 0.43 0.44 0.43 0.41 0.32 0.26 0.19 0.13 0.06 0.06 0.03 0.00 0.00
0.00 0.00 0.00 0.00 0.00 0.00 0.00 0.00 0.00 0.00 0.01 0.24 0.22 0.06 0.05 0.42 0.59 0.31 0.10 0.21 0.14 0.10 0.11 0.13 0.16 0.12 0.18 0.27 0.44 0.85 0.85 0.88 0.70 0.59 0.51 0.38 0.29 0.24 0.21 0.12 0.03 0.03 0.01 0.00
0.00 0.00 0.00 0.00 0.00 0.00 0.00 0.00 0.01 0.13 0.05 0.23 0.21 0.12 0.09 0.08 0.11 0.04 0.04 0.11 0.15 0.16 0.17 0.22 0.26 0.21 0.17 0.14 0.16 0.25 0.24 0.22 0.14 0.09 0.11 0.11 0.14 0.10 0.05 0.05 0.03 0.02 0.01 0.00
0.00 0.00 0.00 0.00 0.00 0.00 0.00 0.00 0.02 0.11 0.05 0.02 0.05 0.05 0.02 0.01 0.02 0.03 0.09 0.19 0.18 0.18 0.20 0.20 0.22 0.26 0.20 0.12 0.11 0.15 0.17 0.06 0.02 0.03 0.05 0.06 0.05 0.08 0.07 0.08 0.08 0.06 0.02 0.02
0.00 0.00 0.00 0.00 0.00 0.01 0.02 0.05 0.09 0.13 0.07 0.06 0.08 0.12 0.07 0.02 0.06 0.13 0.22 0.24 0.24 0.24 0.18 0.13 0.12 0.09 0.05 0.05 0.07 0.06 0.14 0.06 0.05 0.06 0.07 0.05 0.12 0.13 0.22 0.38 0.41 0.42 0.30 0.17
0.00 0.01 0.01 0.01 0.00 0.01 0.03 0.04 0.10 0.12 0.19 0.32 0.41 0.43 0.36 0.45 0.72 0.95 1.04 0.80 0.47 0.25 0.16 0.08 0.03 0.04 0.03 0.03 0.05 0.06 0.04 0.03 0.03 0.12 0.12 0.18 0.27 0.46 0.63 0.56 0.52 0.53 0.45 0.26
0.01 0.03 0.04 0.03 0.02 0.05 0.14 0.25 0.28 0.06 0.51 0.80 0.76 0.67 0.64 0.61 0.57 0.42 0.23 0.11 0.05 0.03 0.02 0.02 0.03 0.05 0.05 0.04 0.03 0.01 0.02 0.01 0.02 0.07 0.09 0.14 0.24 0.27 0.24 0.25 0.19 0.13 0.12 0.13
0.01 0.06 0.13 0.19 0.12 0.17 0.38 0.47 0.25 0.10 0.35 0.25 0.13 0.11 0.13 0.08 0.03 0.01 0.00 0.00 0.00 0.00 0.00 0.00 0.00 0.00 0.01 0.01 0.01 0.00 0.01 0.01 0.04 0.03 0.00 0.00 0.00 0.01 0.03 0.07 0.08 0.10 0.08 0.08